This demonstration page uses our WeatherBlox Daily Observations layout. Learn more.

Left ArrowRight Arrow

34.74481, -87.66753

Hourly Observations for May 12, 2021

Temp ( °F °C ) Dew Point ( °F °C ) Humidity (%) Winds ( mph kmh ) Pressure ( in mb ) Visibility ( mi km ) Precip ( " mm )
12:53 am 00:53 Cloudy with Light Rain 59 15 50 10 72 72 ENE 8 13 30.09 1019 10 16 0.03 0.76
1:53 am 01:53 Mostly Cloudy 58 14.4 48 8.9 70 70 ENE 9 15 30.06 1018 10 16 0.02 0.51
2:53 am 02:53 Cloudy 58 14.4 49 9.4 72 72 N 8 13 30.11 1020 10 16 0.00 0.00
3:53 am 03:53 Cloudy 58 14.4 48 8.9 70 70 NNE 9 15 30.12 1020 10 16 0.00 0.00
4:53 am 04:53 Cloudy 58 14.4 47 8.3 67 67 NE 10 17 30.13 1020 10 16 0.00 0.00
5:53 am 05:53 Cloudy 57 13.9 46 7.8 67 67 NE 9 15 30.14 1021 10 16 0.00 0.00
6:53 am 06:53 Cloudy 57 13.9 45 7.2 64 64 ENE 10 17 30.16 1021 10 16 0.00 0.00
7:53 am 07:53 Cloudy 57 13.9 44 6.7 62 62 ENE 8 13 30.18 1022 10 16 0.00 0.00
8:53 am 08:53 Cloudy 58 14.4 43 6.1 58 58 ENE 9 15 30.20 1023 10 16 0.00 0.00
9:53 am 09:53 undefined 61 16.1 44 6.7 54 54 NE 12 19 30.19 1022 10 16 0.00 0.00
10:53 am 10:53 Sunny 65 18.3 46 7.8 51 51 ENE 12 19 30.20 1023 10 16 0.00 0.00
11:53 am 11:53 Sunny 68 20 46 7.8 45 45 ENE 12 19 30.20 1023 10 16 0.00 0.00
12:53 pm 12:53 Sunny 71 21.7 46 7.8 41 41 NNE 10 17 30.18 1022 10 16 0.00 0.00
1:53 pm 13:53 Sunny 72 22.2 46 7.8 40 40 NNE 9 15 30.19 1022 10 16 0.00 0.00
2:53 pm 14:53 Sunny 71 21.7 45 7.2 39 39 NNE 12 19 30.17 1022 10 16 0.00 0.00
3:53 pm 15:53 Sunny 72 22.2 44 6.7 37 37 NNE 9 15 30.16 1021 10 16 0.00 0.00
4:53 pm 16:53 Sunny 71 21.7 43 6.1 36 36 NE 10 17 30.16 1022 10 16 0.00 0.00
5:53 pm 17:53 Sunny 71 21.7 42 5.6 35 35 N 8 13 30.17 1022 10 16 0.00 0.00
6:53 pm 18:53 Sunny 68 20 41 5 38 38 NNE 12 19 30.18 1022 10 16 0.00 0.00
7:53 pm 19:53 Clear 65 18.3 40 4.4 40 40 NNE 6 9 30.20 1023 10 16 0.00 0.00
8:53 pm 20:53 Clear 63 17.2 39 3.9 41 41 NNE 6 9 30.22 1023 10 16 0.00 0.00
9:53 pm 21:53 Clear 62 16.7 38 3.3 41 41 NE 8 13 30.23 1024 10 16 0.00 0.00
10:53 pm 22:53 Clear 61 16.1 38 3.3 43 43 NE 7 11 30.23 1024 10 16 0.00 0.00
11:53 pm 23:53 Cloudy 61 16.1 37 2.8 41 41 NE 8 13 30.23 1024 10 16 0.00 0.00

Powered by AerisWeather